Year,Month,Day,Hour,Minute,Value (Times are PST for temperature in C)
2010,07,27,00,00,17.60
2010,07,27,00,01,17.60
2010,07,27,00,02,17.50
2010,07,27,00,03,17.50
2010,07,27,00,04,17.50
2010,07,27,00,05,17.40
2010,07,27,00,06,17.40
2010,07,27,00,07,17.40
2010,07,27,00,08,17.40
2010,07,27,00,09,17.40
2010,07,27,00,10,17.30
2010,07,27,00,11,17.30
2010,07,27,00,12,17.30
2010,07,27,00,13,17.30
2010,07,27,00,14,17.30
2010,07,27,00,15,17.30
2010,07,27,00,16,17.20
2010,07,27,00,17,17.20
2010,07,27,00,18,17.20
2010,07,27,00,19,17.20
2010,07,27,00,20,17.20
2010,07,27,00,21,17.10
2010,07,27,00,22,17.10
2010,07,27,00,23,17.10
2010,07,27,00,24,17.10
2010,07,27,00,25,17.10
2010,07,27,00,26,17.10
2010,07,27,00,27,17.00
2010,07,27,00,28,17.00
2010,07,27,00,29,17.00
2010,07,27,00,30,16.90
2010,07,27,00,31,16.90
2010,07,27,00,32,16.90
2010,07,27,00,33,16.90
2010,07,27,00,34,16.90
2010,07,27,00,35,16.80
2010,07,27,00,36,16.80
2010,07,27,00,37,16.80
2010,07,27,00,38,16.80
2010,07,27,00,39,16.70
2010,07,27,00,40,16.70
2010,07,27,00,41,16.70
2010,07,27,00,42,16.70
2010,07,27,00,43,16.70
2010,07,27,00,44,16.70
2010,07,27,00,45,16.60
2010,07,27,00,46,16.60
2010,07,27,00,47,16.60
2010,07,27,00,48,16.50
2010,07,27,00,49,16.50
2010,07,27,00,50,16.40
2010,07,27,00,51,16.40
2010,07,27,00,52,16.40
2010,07,27,00,53,16.30
2010,07,27,00,54,16.30
2010,07,27,00,55,16.30
2010,07,27,00,56,16.30
2010,07,27,00,57,16.20
2010,07,27,00,58,16.20
2010,07,27,00,59,16.20
2010,07,27,01,00,16.10
2010,07,27,01,01,16.10
2010,07,27,01,02,16.10
2010,07,27,01,03,16.10
2010,07,27,01,04,16.10
2010,07,27,01,05,16.10
2010,07,27,01,06,16.00
2010,07,27,01,07,16.00
2010,07,27,01,08,15.90
2010,07,27,01,09,15.90
2010,07,27,01,10,15.90
2010,07,27,01,11,15.90
2010,07,27,01,12,15.80
2010,07,27,01,13,15.80
2010,07,27,01,14,15.80
2010,07,27,01,15,15.70
2010,07,27,01,16,15.70
2010,07,27,01,17,15.70
2010,07,27,01,18,15.70
2010,07,27,01,19,15.60
2010,07,27,01,20,15.60
2010,07,27,01,21,15.60
2010,07,27,01,22,15.60
2010,07,27,01,23,15.50
2010,07,27,01,24,15.50
2010,07,27,01,25,15.50
2010,07,27,01,26,15.40
2010,07,27,01,27,15.40
2010,07,27,01,28,15.40
2010,07,27,01,29,15.40
2010,07,27,01,30,15.30
2010,07,27,01,31,15.30
2010,07,27,01,32,15.30
2010,07,27,01,33,15.30
2010,07,27,01,34,15.30
2010,07,27,01,35,15.20
2010,07,27,01,36,15.20
2010,07,27,01,37,15.20
2010,07,27,01,38,15.20
2010,07,27,01,39,15.20
2010,07,27,01,40,15.10
2010,07,27,01,41,15.10
2010,07,27,01,42,15.10
2010,07,27,01,43,15.10
2010,07,27,01,44,15.00
2010,07,27,01,45,15.00
2010,07,27,01,46,15.00
2010,07,27,01,47,15.00
2010,07,27,01,48,15.00
2010,07,27,01,49,15.00
2010,07,27,01,50,15.00
2010,07,27,01,51,15.00
2010,07,27,01,52,15.00
2010,07,27,01,53,15.00
2010,07,27,01,54,15.00
2010,07,27,01,55,15.00
2010,07,27,01,56,15.00
2010,07,27,01,57,15.00
2010,07,27,01,58,15.00
2010,07,27,01,59,15.00
2010,07,27,02,00,15.00
2010,07,27,02,01,15.00
2010,07,27,02,02,15.00
2010,07,27,02,03,15.00
2010,07,27,02,04,15.00
2010,07,27,02,05,15.00
2010,07,27,02,06,15.00
2010,07,27,02,07,15.00
2010,07,27,02,08,15.00
2010,07,27,02,09,15.00
2010,07,27,02,10,15.00
2010,07,27,02,11,15.00
2010,07,27,02,12,15.00
2010,07,27,02,13,14.90
2010,07,27,02,14,14.90
2010,07,27,02,15,14.90
2010,07,27,02,16,14.80
2010,07,27,02,17,14.80
2010,07,27,02,18,14.80
2010,07,27,02,19,14.80
2010,07,27,02,20,14.80
2010,07,27,02,21,14.80
2010,07,27,02,22,14.70
2010,07,27,02,23,14.70
2010,07,27,02,24,14.70
2010,07,27,02,25,14.70
2010,07,27,02,26,14.70
2010,07,27,02,27,14.70
2010,07,27,02,28,14.70
2010,07,27,02,29,14.60
2010,07,27,02,30,14.60
2010,07,27,02,31,14.60
2010,07,27,02,32,14.50
2010,07,27,02,33,14.50
2010,07,27,02,34,14.50
2010,07,27,02,35,14.40
2010,07,27,02,36,14.40
2010,07,27,02,37,14.30
2010,07,27,02,38,14.30
2010,07,27,02,39,14.30
2010,07,27,02,40,14.20
2010,07,27,02,41,14.20
2010,07,27,02,42,14.20
2010,07,27,02,43,14.10
2010,07,27,02,44,14.10
2010,07,27,02,45,14.10
2010,07,27,02,46,14.00
2010,07,27,02,47,14.00
2010,07,27,02,48,14.00
2010,07,27,02,49,13.90
2010,07,27,02,50,13.90
2010,07,27,02,51,13.90
2010,07,27,02,52,13.90
2010,07,27,02,53,13.80
2010,07,27,02,54,13.80
2010,07,27,02,55,13.80
2010,07,27,02,56,13.80
2010,07,27,02,57,13.80
2010,07,27,02,58,13.80
2010,07,27,02,59,13.70
2010,07,27,03,00,13.70
2010,07,27,03,01,13.70
2010,07,27,03,02,13.70
2010,07,27,03,03,13.70
2010,07,27,03,04,13.70
2010,07,27,03,05,13.70
2010,07,27,03,06,13.70
2010,07,27,03,07,13.70
2010,07,27,03,08,13.70
2010,07,27,03,09,13.70
2010,07,27,03,10,13.70
2010,07,27,03,11,13.70
2010,07,27,03,12,13.70
2010,07,27,03,13,13.70
2010,07,27,03,14,13.70
2010,07,27,03,15,13.70
2010,07,27,03,16,13.70
2010,07,27,03,17,13.70
2010,07,27,03,18,13.70
2010,07,27,03,19,13.70
2010,07,27,03,20,13.80
2010,07,27,03,21,13.80
2010,07,27,03,22,13.80
2010,07,27,03,23,13.80
2010,07,27,03,24,13.80
2010,07,27,03,25,13.80
2010,07,27,03,26,13.80
2010,07,27,03,27,13.80
2010,07,27,03,28,13.80
2010,07,27,03,29,13.80
2010,07,27,03,30,13.80
2010,07,27,03,31,13.80
2010,07,27,03,32,13.80
2010,07,27,03,33,13.80
2010,07,27,03,34,13.80
2010,07,27,03,35,13.80
2010,07,27,03,36,13.80
2010,07,27,03,37,13.80
2010,07,27,03,38,13.80
2010,07,27,03,39,13.80
2010,07,27,03,40,13.80
2010,07,27,03,41,13.80
2010,07,27,03,42,13.80
2010,07,27,03,43,13.80
2010,07,27,03,44,13.70
2010,07,27,03,45,13.80
2010,07,27,03,46,13.80
2010,07,27,03,47,13.80
2010,07,27,03,48,13.80
2010,07,27,03,49,13.80
2010,07,27,03,50,13.80
2010,07,27,03,51,13.80
2010,07,27,03,52,13.80
2010,07,27,03,53,13.80
2010,07,27,03,54,13.80
2010,07,27,03,55,13.80
2010,07,27,03,56,13.80
2010,07,27,03,57,13.80
2010,07,27,03,58,13.80
2010,07,27,03,59,13.80
2010,07,27,04,00,13.80
2010,07,27,04,01,13.80
2010,07,27,04,02,13.80
2010,07,27,04,03,13.80
2010,07,27,04,04,13.80
2010,07,27,04,05,13.80
2010,07,27,04,06,13.80
2010,07,27,04,07,13.80
2010,07,27,04,08,13.70
2010,07,27,04,09,13.70
2010,07,27,04,10,13.70
2010,07,27,04,11,13.70
2010,07,27,04,12,13.70
2010,07,27,04,13,13.60
2010,07,27,04,14,13.60
2010,07,27,04,15,13.60
2010,07,27,04,16,13.50
2010,07,27,04,17,13.50
2010,07,27,04,18,13.40
2010,07,27,04,19,13.40
2010,07,27,04,20,13.30
2010,07,27,04,21,13.30
2010,07,27,04,22,13.30
2010,07,27,04,23,13.20
2010,07,27,04,24,13.20
2010,07,27,04,25,13.20
2010,07,27,04,26,13.20
2010,07,27,04,27,13.10
2010,07,27,04,28,13.10
2010,07,27,04,29,13.10
2010,07,27,04,30,13.00
2010,07,27,04,31,13.00
2010,07,27,04,32,13.00
2010,07,27,04,33,12.90
2010,07,27,04,34,12.90
2010,07,27,04,35,12.90
2010,07,27,04,36,12.90
2010,07,27,04,37,12.80
2010,07,27,04,38,12.80
2010,07,27,04,39,12.80
2010,07,27,04,40,12.80
2010,07,27,04,41,12.80
2010,07,27,04,42,12.80
2010,07,27,04,43,12.80
2010,07,27,04,44,12.70
2010,07,27,04,45,12.70
2010,07,27,04,46,12.70
2010,07,27,04,47,12.70
2010,07,27,04,48,12.70
2010,07,27,04,49,12.70
2010,07,27,04,50,12.60
2010,07,27,04,51,12.60
2010,07,27,04,52,12.60
2010,07,27,04,53,12.60
2010,07,27,04,54,12.60
2010,07,27,04,55,12.60
2010,07,27,04,56,12.60
2010,07,27,04,57,12.60
2010,07,27,04,58,12.60
2010,07,27,04,59,12.60
2010,07,27,05,00,12.60
2010,07,27,05,01,12.60
2010,07,27,05,02,12.60
2010,07,27,05,03,12.60
2010,07,27,05,04,12.60
2010,07,27,05,05,12.60
2010,07,27,05,06,12.60
2010,07,27,05,07,12.60
2010,07,27,05,08,12.60
2010,07,27,05,09,12.60
2010,07,27,05,10,12.50
2010,07,27,05,11,12.50
2010,07,27,05,12,12.50
2010,07,27,05,13,12.50
2010,07,27,05,14,12.50
2010,07,27,05,15,12.50
2010,07,27,05,16,12.50
2010,07,27,05,17,12.50
2010,07,27,05,18,12.50
2010,07,27,05,19,12.50
2010,07,27,05,20,12.50
2010,07,27,05,21,12.40
2010,07,27,05,22,12.40
2010,07,27,05,23,12.40
2010,07,27,05,24,12.40
2010,07,27,05,25,12.40
2010,07,27,05,26,12.50
2010,07,27,05,27,12.50
2010,07,27,05,28,12.50
2010,07,27,05,29,12.50
2010,07,27,05,30,12.50
2010,07,27,05,31,12.50
2010,07,27,05,32,12.50
2010,07,27,05,33,12.50
2010,07,27,05,34,12.50
2010,07,27,05,35,12.60
2010,07,27,05,36,12.60
2010,07,27,05,37,12.60
2010,07,27,05,38,12.60
2010,07,27,05,39,12.60
2010,07,27,05,40,12.60
2010,07,27,05,41,12.60
2010,07,27,05,42,12.60
2010,07,27,05,43,12.60
2010,07,27,05,44,12.70
2010,07,27,05,45,12.70
2010,07,27,05,46,12.70
2010,07,27,05,47,12.70
2010,07,27,05,48,12.70
2010,07,27,05,49,12.70
2010,07,27,05,50,12.70
2010,07,27,05,51,12.70
2010,07,27,05,52,12.70
2010,07,27,05,53,12.70
2010,07,27,05,54,12.70
2010,07,27,05,55,12.70
2010,07,27,05,56,12.70
2010,07,27,05,57,12.70
2010,07,27,05,58,12.70
2010,07,27,05,59,12.70
2010,07,27,06,00,12.80
2010,07,27,06,01,12.80
2010,07,27,06,02,12.80
2010,07,27,06,03,12.70
2010,07,27,06,04,12.70
2010,07,27,06,05,12.70
2010,07,27,06,06,12.70
2010,07,27,06,07,12.70
2010,07,27,06,08,12.70
2010,07,27,06,09,12.70
2010,07,27,06,10,12.70
2010,07,27,06,11,12.70
2010,07,27,06,12,12.70
2010,07,27,06,13,12.70
2010,07,27,06,14,12.80
2010,07,27,06,15,12.80
2010,07,27,06,16,12.80
2010,07,27,06,17,12.80
2010,07,27,06,18,12.80
2010,07,27,06,19,12.80
2010,07,27,06,20,12.80
2010,07,27,06,21,12.80
2010,07,27,06,22,12.80
2010,07,27,06,23,12.90
2010,07,27,06,24,12.90
2010,07,27,06,25,12.90
2010,07,27,06,26,12.90
2010,07,27,06,27,12.90
2010,07,27,06,28,12.90
2010,07,27,06,29,12.90
2010,07,27,06,30,12.90
2010,07,27,06,31,12.90
2010,07,27,06,32,12.90
2010,07,27,06,33,12.90
2010,07,27,06,34,12.90
2010,07,27,06,35,12.90
2010,07,27,06,36,12.90
2010,07,27,06,37,13.00
2010,07,27,06,38,13.00
2010,07,27,06,39,13.00
2010,07,27,06,40,13.00
2010,07,27,06,41,13.00
2010,07,27,06,42,13.10
2010,07,27,06,43,13.10
2010,07,27,06,44,13.10
2010,07,27,06,45,13.10
2010,07,27,06,46,13.10
2010,07,27,06,47,13.10
2010,07,27,06,48,13.10
2010,07,27,06,49,13.10
2010,07,27,06,50,13.10
2010,07,27,06,51,13.10
2010,07,27,06,52,13.10
2010,07,27,06,53,13.10
2010,07,27,06,54,13.10
2010,07,27,06,55,13.10
2010,07,27,06,56,13.10
2010,07,27,06,57,13.10
2010,07,27,06,58,13.10
2010,07,27,06,59,13.10
2010,07,27,07,00,13.10
2010,07,27,07,01,13.10
2010,07,27,07,02,13.10
2010,07,27,07,03,13.10
2010,07,27,07,04,13.10
2010,07,27,07,05,13.10
2010,07,27,07,06,13.10
2010,07,27,07,07,13.10
2010,07,27,07,08,13.20
2010,07,27,07,09,13.20
2010,07,27,07,10,13.20
2010,07,27,07,11,13.20
2010,07,27,07,12,13.30
2010,07,27,07,13,13.30
2010,07,27,07,14,13.30
2010,07,27,07,15,13.40
2010,07,27,07,16,13.40
2010,07,27,07,17,13.40
2010,07,27,07,18,13.50
2010,07,27,07,19,13.50
2010,07,27,07,20,13.50
2010,07,27,07,21,13.60
2010,07,27,07,22,13.60
2010,07,27,07,23,13.60
2010,07,27,07,24,13.60
2010,07,27,07,25,13.60
2010,07,27,07,26,13.70
2010,07,27,07,27,13.70
2010,07,27,07,28,13.80
2010,07,27,07,29,13.80
2010,07,27,07,30,13.80
2010,07,27,07,31,13.90
2010,07,27,07,32,13.90
2010,07,27,07,33,14.00
2010,07,27,07,34,14.00
2010,07,27,07,35,14.10
2010,07,27,07,36,14.10
2010,07,27,07,37,14.10
2010,07,27,07,38,14.10
2010,07,27,07,39,14.20
2010,07,27,07,40,14.20
2010,07,27,07,41,14.20
2010,07,27,07,42,14.20
2010,07,27,07,43,14.20
2010,07,27,07,44,14.30
2010,07,27,07,45,14.30
2010,07,27,07,46,14.30
2010,07,27,07,47,14.30
2010,07,27,07,48,14.30
2010,07,27,07,49,14.40
2010,07,27,07,50,14.40
2010,07,27,07,51,14.50
2010,07,27,07,52,14.60
2010,07,27,07,53,14.60
2010,07,27,07,54,14.70
2010,07,27,07,55,14.80
2010,07,27,07,56,14.90
2010,07,27,07,57,15.00
2010,07,27,07,58,15.00
2010,07,27,07,59,15.00
2010,07,27,08,00,15.00
2010,07,27,08,01,15.00
2010,07,27,08,02,15.10
2010,07,27,08,03,15.20
2010,07,27,08,04,15.30
2010,07,27,08,05,15.30
2010,07,27,08,06,15.40
2010,07,27,08,07,15.50
2010,07,27,08,08,15.60
2010,07,27,08,09,15.60
2010,07,27,08,10,15.70
2010,07,27,08,11,15.70
2010,07,27,08,12,15.80
2010,07,27,08,13,15.80
2010,07,27,08,14,15.90
2010,07,27,08,15,16.00
2010,07,27,08,16,16.00
2010,07,27,08,17,16.10
2010,07,27,08,18,16.10
2010,07,27,08,19,16.20
2010,07,27,08,20,16.20
2010,07,27,08,21,16.30
2010,07,27,08,22,16.30
2010,07,27,08,23,16.40
2010,07,27,08,24,16.40
2010,07,27,08,25,16.40
2010,07,27,08,26,16.40
2010,07,27,08,27,16.40
2010,07,27,08,28,16.50
2010,07,27,08,29,16.50
2010,07,27,08,30,16.40
2010,07,27,08,31,16.30
2010,07,27,08,32,16.30
2010,07,27,08,33,16.20
2010,07,27,08,34,16.20
2010,07,27,08,35,16.00
2010,07,27,08,36,16.00
2010,07,27,08,37,15.90
2010,07,27,08,38,15.90
2010,07,27,08,39,15.80
2010,07,27,08,40,15.80
2010,07,27,08,41,15.90
2010,07,27,08,42,16.00
2010,07,27,08,43,16.00
2010,07,27,08,44,16.00
2010,07,27,08,45,16.10
2010,07,27,08,46,16.10
2010,07,27,08,47,16.20
2010,07,27,08,48,16.20
2010,07,27,08,49,16.30
2010,07,27,08,50,16.40
2010,07,27,08,51,16.50
2010,07,27,08,52,16.60
2010,07,27,08,53,16.70
2010,07,27,08,54,16.80
2010,07,27,08,55,16.80
2010,07,27,08,56,16.90
2010,07,27,08,57,16.90
2010,07,27,08,58,16.90
2010,07,27,08,59,16.90
2010,07,27,09,00,16.90
2010,07,27,09,01,16.90
2010,07,27,09,02,17.00
2010,07,27,09,03,17.00
2010,07,27,09,04,17.00
2010,07,27,09,05,17.00
2010,07,27,09,06,17.10
2010,07,27,09,07,17.10
2010,07,27,09,08,17.20
2010,07,27,09,09,17.20
2010,07,27,09,10,17.30
2010,07,27,09,11,17.40
2010,07,27,09,12,17.50
2010,07,27,09,13,17.50
2010,07,27,09,14,17.60
2010,07,27,09,15,17.70
2010,07,27,09,16,17.70
2010,07,27,09,17,17.80
2010,07,27,09,18,17.90
2010,07,27,09,19,18.00
2010,07,27,09,20,18.00
2010,07,27,09,21,18.10
2010,07,27,09,22,18.10
2010,07,27,09,23,18.10
2010,07,27,09,24,18.10
2010,07,27,09,25,18.10
2010,07,27,09,26,18.00
2010,07,27,09,27,18.00
2010,07,27,09,28,18.00
2010,07,27,09,29,18.00
2010,07,27,09,30,18.00
2010,07,27,09,31,18.00
2010,07,27,09,32,18.10
2010,07,27,09,33,18.10
2010,07,27,09,34,18.10
2010,07,27,09,35,18.20
2010,07,27,09,36,18.20
2010,07,27,09,37,18.20
2010,07,27,09,38,18.30
2010,07,27,09,39,18.30
2010,07,27,09,40,18.30
2010,07,27,09,41,18.40
2010,07,27,09,42,18.40
2010,07,27,09,43,18.40
2010,07,27,09,44,18.40
2010,07,27,09,45,18.50
2010,07,27,09,46,18.50
2010,07,27,09,47,18.60
2010,07,27,09,48,18.40
2010,07,27,09,49,18.40
2010,07,27,09,50,18.30
2010,07,27,09,51,18.20
2010,07,27,09,52,18.20
2010,07,27,09,53,18.10
2010,07,27,09,54,18.10
2010,07,27,09,55,18.10
2010,07,27,09,56,18.00
2010,07,27,09,57,17.90
2010,07,27,09,58,17.80
2010,07,27,09,59,17.70
2010,07,27,10,00,17.70
2010,07,27,10,01,17.70
2010,07,27,10,02,17.70
2010,07,27,10,03,17.70
2010,07,27,10,04,17.70
2010,07,27,10,05,17.80
2010,07,27,10,06,17.80
2010,07,27,10,07,17.80
2010,07,27,10,08,17.90
2010,07,27,10,09,18.00
2010,07,27,10,10,18.10
2010,07,27,10,11,18.20
2010,07,27,10,12,18.30
2010,07,27,10,13,18.40
2010,07,27,10,14,18.50
2010,07,27,10,15,18.60
2010,07,27,10,16,18.60
2010,07,27,10,17,18.50
2010,07,27,10,18,18.50
2010,07,27,10,19,18.40
2010,07,27,10,20,18.40
2010,07,27,10,21,18.30
2010,07,27,10,22,18.30
2010,07,27,10,23,18.20
2010,07,27,10,24,18.20
2010,07,27,10,25,18.20
2010,07,27,10,26,18.20
2010,07,27,10,27,18.20
2010,07,27,10,28,18.20
2010,07,27,10,29,18.10
2010,07,27,10,30,18.10
2010,07,27,10,31,18.10
2010,07,27,10,32,18.10
2010,07,27,10,33,18.10
2010,07,27,10,34,18.10
2010,07,27,10,35,18.10
2010,07,27,10,36,18.10
2010,07,27,10,37,18.00
2010,07,27,10,38,18.00
2010,07,27,10,39,17.90
2010,07,27,10,40,17.80
2010,07,27,10,41,17.80
2010,07,27,10,42,17.70
2010,07,27,10,43,17.70
2010,07,27,10,44,17.70
2010,07,27,10,45,17.70
2010,07,27,10,46,17.70
2010,07,27,10,47,17.70
2010,07,27,10,48,17.70
2010,07,27,10,49,17.70
2010,07,27,10,50,17.70
2010,07,27,10,51,17.70
2010,07,27,10,52,17.70
2010,07,27,10,53,17.70
2010,07,27,10,54,17.80
2010,07,27,10,55,17.80
2010,07,27,10,56,17.80
2010,07,27,10,57,17.80
2010,07,27,10,58,17.80
2010,07,27,10,59,17.80
2010,07,27,11,00,17.80
2010,07,27,11,01,17.90
2010,07,27,11,02,17.90
2010,07,27,11,03,17.90
2010,07,27,11,04,18.00
2010,07,27,11,05,18.10
2010,07,27,11,06,18.20
2010,07,27,11,07,18.20
2010,07,27,11,08,18.20
2010,07,27,11,09,18.20
2010,07,27,11,10,18.20
2010,07,27,11,11,18.10
2010,07,27,11,12,18.10
2010,07,27,11,13,18.10
2010,07,27,11,14,18.10
2010,07,27,11,15,18.20
2010,07,27,11,16,18.30
2010,07,27,11,17,18.20
2010,07,27,11,18,18.10
2010,07,27,11,19,18.10
2010,07,27,11,20,18.10
2010,07,27,11,21,18.10
2010,07,27,11,22,18.10
2010,07,27,11,23,18.10
2010,07,27,11,24,18.10
2010,07,27,11,25,18.00
2010,07,27,11,26,18.00
2010,07,27,11,27,18.00
2010,07,27,11,28,18.00
2010,07,27,11,29,17.90
2010,07,27,11,30,18.00
2010,07,27,11,31,18.10
2010,07,27,11,32,18.10
2010,07,27,11,33,18.20
2010,07,27,11,34,18.30
2010,07,27,11,35,18.10
2010,07,27,11,36,18.00
2010,07,27,11,37,18.00
2010,07,27,11,38,17.90
2010,07,27,11,39,17.90
2010,07,27,11,40,18.00
2010,07,27,11,41,18.00
2010,07,27,11,42,18.00
2010,07,27,11,43,18.10
2010,07,27,11,44,18.10
2010,07,27,11,45,18.20
2010,07,27,11,46,18.10
2010,07,27,11,47,18.10
2010,07,27,11,48,18.10
2010,07,27,11,49,18.10
2010,07,27,11,50,18.10
2010,07,27,11,51,18.10
2010,07,27,11,52,18.20
2010,07,27,11,53,18.20
2010,07,27,11,54,18.30
2010,07,27,11,55,18.30
2010,07,27,11,56,18.30
2010,07,27,11,57,18.30
2010,07,27,11,58,18.20
2010,07,27,11,59,18.20
2010,07,27,12,00,18.20
2010,07,27,12,01,18.20
2010,07,27,12,02,18.20
2010,07,27,12,03,18.20
2010,07,27,12,04,18.20
2010,07,27,12,05,18.30
2010,07,27,12,06,18.30
2010,07,27,12,07,18.40
2010,07,27,12,08,18.30
2010,07,27,12,09,18.20
2010,07,27,12,10,18.20
2010,07,27,12,11,18.20
2010,07,27,12,12,18.20
2010,07,27,12,13,18.30
2010,07,27,12,14,18.20
2010,07,27,12,15,18.30
2010,07,27,12,16,18.30
2010,07,27,12,17,18.50
2010,07,27,12,18,18.50
2010,07,27,12,19,18.60
2010,07,27,12,20,18.60
2010,07,27,12,21,18.60
2010,07,27,12,22,18.70
2010,07,27,12,23,18.70
2010,07,27,12,24,18.70
2010,07,27,12,25,18.70
2010,07,27,12,26,18.70
2010,07,27,12,27,18.70
2010,07,27,12,28,18.70
2010,07,27,12,29,18.70
2010,07,27,12,30,18.80
2010,07,27,12,31,18.80
2010,07,27,12,32,18.80
2010,07,27,12,33,18.80
2010,07,27,12,34,18.70
2010,07,27,12,35,18.60
2010,07,27,12,36,18.40
2010,07,27,12,37,18.30
2010,07,27,12,38,18.20
2010,07,27,12,39,18.20
2010,07,27,12,40,18.10
2010,07,27,12,41,18.10
2010,07,27,12,42,18.20
2010,07,27,12,43,18.20
2010,07,27,12,44,18.20
2010,07,27,12,45,18.20
2010,07,27,12,46,18.20
2010,07,27,12,47,18.30
2010,07,27,12,48,18.30
2010,07,27,12,49,18.30
2010,07,27,12,50,18.30
2010,07,27,12,51,18.40
2010,07,27,12,52,18.50
2010,07,27,12,53,18.50
2010,07,27,12,54,18.60
2010,07,27,12,55,18.70
2010,07,27,12,56,18.80
2010,07,27,12,57,18.90
2010,07,27,12,58,18.90
2010,07,27,12,59,19.00
2010,07,27,13,00,19.00
2010,07,27,13,01,18.90
2010,07,27,13,02,18.90
2010,07,27,13,03,18.90
2010,07,27,13,04,19.00
2010,07,27,13,05,19.10
2010,07,27,13,06,19.20
2010,07,27,13,07,19.30
2010,07,27,13,08,19.40
2010,07,27,13,09,19.50
2010,07,27,13,10,19.50
2010,07,27,13,11,19.60
2010,07,27,13,12,19.70
2010,07,27,13,13,19.70
2010,07,27,13,14,19.80
2010,07,27,13,15,19.80
2010,07,27,13,16,19.80
2010,07,27,13,17,19.90
2010,07,27,13,18,19.80
2010,07,27,13,19,19.80
2010,07,27,13,20,19.80
2010,07,27,13,21,19.80
2010,07,27,13,22,19.80
2010,07,27,13,23,19.80
2010,07,27,13,24,19.90
2010,07,27,13,25,19.90
2010,07,27,13,26,20.00
2010,07,27,13,27,20.10
2010,07,27,13,28,20.10
2010,07,27,13,29,20.10
2010,07,27,13,30,20.20
2010,07,27,13,31,20.20
2010,07,27,13,32,20.30
2010,07,27,13,33,20.40
2010,07,27,13,34,20.50
2010,07,27,13,35,20.60
2010,07,27,13,36,20.80
2010,07,27,13,37,20.80
2010,07,27,13,38,20.90
2010,07,27,13,39,20.90
2010,07,27,13,40,20.90
2010,07,27,13,41,21.00
2010,07,27,13,42,21.00
2010,07,27,13,43,21.10
2010,07,27,13,44,21.10
2010,07,27,13,45,21.20
2010,07,27,13,46,21.30
2010,07,27,13,47,21.50
2010,07,27,13,48,21.60
2010,07,27,13,49,21.70
2010,07,27,13,50,21.80
2010,07,27,13,51,21.80
2010,07,27,13,52,21.80
2010,07,27,13,53,21.80
2010,07,27,13,54,21.90
2010,07,27,13,55,21.90
2010,07,27,13,56,21.90
2010,07,27,13,57,21.90
2010,07,27,13,58,22.00
2010,07,27,13,59,22.10
2010,07,27,14,00,22.10
2010,07,27,14,01,22.10
2010,07,27,14,02,22.20
2010,07,27,14,03,22.20
2010,07,27,14,04,22.10
2010,07,27,14,05,22.10
2010,07,27,14,06,22.10
2010,07,27,14,07,22.00
2010,07,27,14,08,22.10
2010,07,27,14,09,22.10
2010,07,27,14,10,22.10
2010,07,27,14,11,22.20
2010,07,27,14,12,22.30
2010,07,27,14,13,22.30
2010,07,27,14,14,22.30
2010,07,27,14,15,22.30
2010,07,27,14,16,22.30
2010,07,27,14,17,22.40
2010,07,27,14,18,22.40
2010,07,27,14,19,22.30
2010,07,27,14,20,22.20
2010,07,27,14,21,22.20
2010,07,27,14,22,22.20
2010,07,27,14,23,22.30
2010,07,27,14,24,22.40
2010,07,27,14,25,22.50
2010,07,27,14,26,22.60
2010,07,27,14,27,22.60
2010,07,27,14,28,22.70
2010,07,27,14,29,22.80
2010,07,27,14,30,22.90
2010,07,27,14,31,23.00
2010,07,27,14,32,23.20
2010,07,27,14,33,23.30
2010,07,27,14,34,23.50
2010,07,27,14,35,23.80
2010,07,27,14,36,24.00
2010,07,27,14,37,24.30
2010,07,27,14,38,24.50
2010,07,27,14,39,24.70
2010,07,27,14,40,24.90
2010,07,27,14,41,25.00
2010,07,27,14,42,25.20
2010,07,27,14,43,25.20
2010,07,27,14,44,25.30
2010,07,27,14,45,25.40
2010,07,27,14,46,25.50
2010,07,27,14,47,25.60
2010,07,27,14,48,25.70
2010,07,27,14,49,25.80
2010,07,27,14,50,25.90
2010,07,27,14,51,25.90
2010,07,27,14,52,25.90
2010,07,27,14,53,25.80
2010,07,27,14,54,25.90
2010,07,27,14,55,25.90
2010,07,27,14,56,25.90
2010,07,27,14,57,25.90
2010,07,27,14,58,25.90
2010,07,27,14,59,25.90
2010,07,27,15,00,25.90
2010,07,27,15,01,25.90
2010,07,27,15,02,26.00
2010,07,27,15,03,26.10
2010,07,27,15,04,26.20
2010,07,27,15,05,26.30
2010,07,27,15,06,26.30
2010,07,27,15,07,26.30
2010,07,27,15,08,26.40
2010,07,27,15,09,26.60
2010,07,27,15,10,26.70
2010,07,27,15,11,26.80
2010,07,27,15,12,26.90
2010,07,27,15,13,27.00
2010,07,27,15,14,27.10
2010,07,27,15,15,27.20
2010,07,27,15,16,27.30
2010,07,27,15,17,27.40
2010,07,27,15,18,27.40
2010,07,27,15,19,27.50
2010,07,27,15,20,27.50
2010,07,27,15,21,27.50
2010,07,27,15,22,27.40
2010,07,27,15,23,27.30
2010,07,27,15,24,27.20
2010,07,27,15,25,27.20
2010,07,27,15,26,27.20
2010,07,27,15,27,27.20
2010,07,27,15,28,27.20
2010,07,27,15,29,27.10
2010,07,27,15,30,27.10
2010,07,27,15,31,27.10
2010,07,27,15,32,27.10
2010,07,27,15,33,27.20
2010,07,27,15,34,27.20
2010,07,27,15,35,27.30
2010,07,27,15,36,27.30
2010,07,27,15,37,27.30
2010,07,27,15,38,27.30
2010,07,27,15,39,27.20
2010,07,27,15,40,27.10
2010,07,27,15,41,27.10
2010,07,27,15,42,27.00
2010,07,27,15,43,27.00
2010,07,27,15,44,27.00
2010,07,27,15,45,27.00
2010,07,27,15,46,27.00
2010,07,27,15,47,27.00
2010,07,27,15,48,27.00
2010,07,27,15,49,27.10
2010,07,27,15,50,27.10
2010,07,27,15,51,27.10
2010,07,27,15,52,27.20
2010,07,27,15,53,27.10
2010,07,27,15,54,27.10
2010,07,27,15,55,27.10
2010,07,27,15,56,27.00
2010,07,27,15,57,27.00
2010,07,27,15,58,26.90
2010,07,27,15,59,26.90
2010,07,27,16,00,26.90
2010,07,27,16,01,27.00
2010,07,27,16,02,27.00
2010,07,27,16,03,27.10
2010,07,27,16,04,27.10
2010,07,27,16,05,27.20
2010,07,27,16,06,27.10
2010,07,27,16,07,27.10
2010,07,27,16,08,27.10
2010,07,27,16,09,27.10
2010,07,27,16,10,27.10
2010,07,27,16,11,27.10
2010,07,27,16,12,27.00
2010,07,27,16,13,26.90
2010,07,27,16,14,26.80
2010,07,27,16,15,26.80
2010,07,27,16,16,26.80
2010,07,27,16,17,26.80
2010,07,27,16,18,26.80
2010,07,27,16,19,26.80
2010,07,27,16,20,26.80
2010,07,27,16,21,26.90
2010,07,27,16,22,26.90
2010,07,27,16,23,27.00
2010,07,27,16,24,27.00
2010,07,27,16,25,27.00
2010,07,27,16,26,27.10
2010,07,27,16,27,27.10
2010,07,27,16,28,27.20
2010,07,27,16,29,27.30
2010,07,27,16,30,27.40
2010,07,27,16,31,27.50
2010,07,27,16,32,27.60
2010,07,27,16,33,27.50
2010,07,27,16,34,27.40
2010,07,27,16,35,27.40
2010,07,27,16,36,27.40
2010,07,27,16,37,27.50
2010,07,27,16,38,27.50
2010,07,27,16,39,27.60
2010,07,27,16,40,27.50
2010,07,27,16,41,27.40
2010,07,27,16,42,27.40
2010,07,27,16,43,27.40
2010,07,27,16,44,27.50
2010,07,27,16,45,27.50
2010,07,27,16,46,27.60
2010,07,27,16,47,27.50
2010,07,27,16,48,27.40
2010,07,27,16,49,27.30
2010,07,27,16,50,27.30
2010,07,27,16,51,27.30
2010,07,27,16,52,27.30
2010,07,27,16,53,27.40
2010,07,27,16,54,27.40
2010,07,27,16,55,27.40
2010,07,27,16,56,27.30
2010,07,27,16,57,27.20
2010,07,27,16,58,27.30
2010,07,27,16,59,27.30
2010,07,27,17,00,27.30
2010,07,27,17,01,27.30
2010,07,27,17,02,27.40
2010,07,27,17,03,27.50
2010,07,27,17,04,27.50
2010,07,27,17,05,27.40
2010,07,27,17,06,27.40
2010,07,27,17,07,27.40
2010,07,27,17,08,27.30
2010,07,27,17,09,27.30
2010,07,27,17,10,27.30
2010,07,27,17,11,27.30
2010,07,27,17,12,27.30
2010,07,27,17,13,27.40
2010,07,27,17,14,27.40
2010,07,27,17,15,27.40
2010,07,27,17,16,27.30
2010,07,27,17,17,27.20
2010,07,27,17,18,27.20
2010,07,27,17,19,27.20